Welcome to the New NWS' Forecast!
Most changes are behind the scenes, but click here for differences you might notice.

Regional Weather Roundup (RWR)

Issued by National Weather Service (NWS)

                            
140 
ASUS42 KFFC 141610
RWRGA 
WEATHER ROUNDUP FOR GEORGIA
NATIONAL WEATHER SERVICE PEACHTREE CITY GA
1200 PM EDT MON AUG 14 2017

NOTE: "FAIR" INDICATES FEW OR NO CLOUDS BELOW 12,000 FEET WITH NO
SIGNIFICANT WEATHER AND/OR OBSTRUCTIONS TO VISIBILITY. 

* = USE WITH CAUTION. THE STATIONS MARKED WITH AN ASTERISK MAY NOT
REPORT WEATHER SUCH AS PRECIPITATION, FOG, OR THUNDER AND ARE NOT 
QUALITY CONTROLLED BY NWS.

THE REMARK "TC" DENOTES TEMPERATURE READING IN DEGREES CELSIUS.

GAZ001>058-141700-
NORTH GEORGIA
  
CITY           SKY/WX    TMP DP  RH WIND       PRES   REMARKS
ATLANTA        PTSUNNY   86  73  65 CALM      29.97F HX  93           
ATHENS         CLOUDY    82  77  84 E5        29.98S HX  90           
CHAMBLEE       PTSUNNY   86  73  65 CALM      29.97F HX  93           
PEACHTREE CITY MOSUNNY   88  73  61 CALM      29.97F HX  95           
ROME           PTSUNNY   85  75  72 CALM      29.95R HX  93           
WEST ATLANTA   PTSUNNY   87  72  60 NW3       29.96F HX  93           
GAINESVILLE    PTSUNNY   83  75  77 VRB6      30.01S HX  90           
CARTERSVILLE   PTSUNNY   86  74  67 VRB5      29.97S HX  94           

  
CITY           SKY/WX    TMP DP  RH WIND       PRES   REMARKS
LAWRENCEVILLE* PTSUNNY   84  75  74 E6        29.99F HX  92           
MARIETTA       PTSUNNY   86  71  62 W3        29.97F HX  91           
KENNESAW*      MOSUNNY   87  72  60 CALM      29.98F HX  93           
CANTON*        MOSUNNY   86  72  62 CALM      30.00S HX  92           
$$

GAZ059>098-102>109-141700-
CENTRAL GEORGIA
  
CITY           SKY/WX    TMP DP  RH WIND       PRES   REMARKS
AUGUSTA-BUSH   PTSUNNY   88  78  72 VRB5      29.95F HX 101           
AUGUSTA-DANIEL MOSUNNY   86  74  67 MISG      29.97S HX  94           
COLUMBUS       PTSUNNY   86  77  74 VRB5      29.95F HX  97           
MACON          PTSUNNY   85  76  74 CALM      29.95F HX  94           
ROBINS AFB     MOSUNNY   86  77  75 CALM      29.94F HX  96           

  
CITY           SKY/WX    TMP DP  RH WIND       PRES   REMARKS
LAGRANGE*      PTSUNNY   90  77  64 CALM      29.96S HX 102           
SYLVANIA*      PTSUNNY   87  79  78 CALM      29.96F HX 101           
MILLEDGEVILLE* PTSUNNY   88  77  70 CALM      29.95F HX 100           
$$

GAZ099>101-110>166-141700-
SOUTH GEORGIA
  
CITY           SKY/WX    TMP DP  RH WIND       PRES   REMARKS
SAVANNAH       PTSUNNY   88  77  69 W7        29.95F HX 100           
VALDOSTA       MOSUNNY   86  77  74 W3        29.96F HX  97           
ALMA           MOSUNNY   90  75  61 VRB5      29.96F HX 100           
ST SIMONS      SUNNY     90  76  63 SW5       29.96F HX 101           
FT STEWART     PTSUNNY   87  76  71 CALM      29.93F HX  97           
ALBANY         PTSUNNY   89  78  70 MISG      29.96F HX 103           
HUNTER AFB     MOSUNNY   88  77  69 SW6       29.93F HX 100           
MOODY AFB      MOSUNNY   89  75  64 W5        29.95F HX  99           
BRUNSWICK      SUNNY     90  73  58 SW8       29.97F HX  98           

  
CITY           SKY/WX    TMP DP  RH WIND       PRES   REMARKS
BAINBRIDGE*    MOSUNNY   91  81  70 W6        29.95F HX 110           
MOULTRIE*      MOSUNNY   88  77  70 SW5       29.97S HX 100           
VIDALIA*       MOSUNNY   90  77  66 SW3       29.96F HX 102           
WAYCROSS*      PTSUNNY   91  74  57 W8        29.96F HX 100           
DOUGLAS*       MOSUNNY   86  73  66 W3        29.98F HX  93           
$$